Location: Napier
(39.4830°S, 176.9170°E)
Time: 07:15:51
(UTC+12:00)

ISS - Visible Passes

Search period start: 29 May 2023 00:00
Search period end: 08 June 2023 00:00
Orbit: 412 x 419 km, 51.6° (Epoch: 28 May)

Date Brightness Start Highest point End Pass type
(mag) Time Alt. Az. Time Alt. Az. Time Alt. Az.
29 May -1.2 06:23:16 10° SSW 06:24:20 11° S 06:25:24 10° SSE visible
30 May -1.0 05:35:58 11° S 05:35:58 11° S 05:36:24 10° SSE visible
31 May -1.3 06:22:32 10° SSW 06:24:22 14° SSE 06:26:11 10° SE visible
01 Jun -1.1 05:35:29 12° S 05:35:29 12° S 05:36:46 10° SSE visible
02 Jun -1.7 06:21:40 11° SSW 06:24:11 21° SSE 06:26:50 10° ESE visible
03 Jun -1.4 05:34:58 16° SSE 05:35:15 16° SSE 05:37:28 10° ESE visible
04 Jun -2.7 06:21:10 15° SW 06:23:43 40° SSE 06:26:57 10° ENE visible
05 Jun -2.2 05:34:30 26° SSE 05:34:51 27° SSE 05:37:48 10° E visible
06 Jun -0.6 04:47:51 13° ESE 04:47:51 13° ESE 04:48:28 10° ESE visible
06 Jun -3.8 06:20:44 20° WSW 06:22:57 76° NW 06:26:19 10° NE visible
07 Jun -3.4 05:34:08 60° SSE 05:34:09 60° SE 05:37:31 10° ENE visible
